DECAYED

FENGYUN 1C DEB, 32355 (Decayed)

Orbit data source: Space-Track

FENGYUN 1C DEB, 32355 was space debris in SSO originally from a launch on Mon, 10 May 1999 UTC launched from the Taiyaun Space Center, China (TSC). Fengyun 1C debris stems from the Chinese weather satellite Fengyun-1C, which was intentionally destroyed by a Chinese anti-satellite missile in 2007. This event dramatically increased the amount of space debris, with thousands of trackable fragments posing hazards to satellites and human spaceflight. The Fengyun 1C debris cloud has become a focal point in discussions about space sustainability and the need for international regulations to prevent the creation of new debris.

Not visible in the next 10 days
Identifier
32355, 1999-025CYY
Orbit
Decayed
Country
Flag of CNCN / PRC
Related business
Manufacturer
Unknown
Mission
Decayed spacecraft
Bus & Motor
Unknown
Mass
Unknown
Launch date (UTC)
1999-05-10 (27 years ago)
Launch vehicle
Unknown
Launch site
Taiyaun Space Center, China (TSC)
Object type
Payload
Rocket body
Debris
Shape & HBR
Unknown shape, 0.1 m
Radar Cross Section
Small (<0.1 m²)

Expand to show TLE details & history
Last TLE update: 7 months ago

TLE from 7 months ago
0 FENGYUN 1C DEB
1 32355U 99025CYY 25354.62361286  .00476436  00000-0  89710-2 0  9993
2 32355 100.3409 286.5316 0028321  70.0985  54.5123 15.46351214651120
Epoch: 2025-12-20T14:58Z
TLE epoch observation values (Epoch: 2025-12-20T14:58:00.151Z)
Latitude
53.919°
Longitude
167.00196°
Altitude
425.075 km
Speed
7.668 km/s
True Right ascension
08h 03m 48s
True Declination
53° 44' 50"
Sunlit
Object was in full shadow at epoch
Visualization orbit readout
Latitude
Unknown
Longitude
Unknown
Altitude
Unknown
Speed
Unknown
Apparent Right ascension
Unknown
Apparent Declination
Unknown
Sunlit
N/A
Visualization observer readout
Local Sidereal Time
09:59:31
Azimuth
Unknown
Elevation
Unknown
Doppler factor
Unknown
Orbital elements
Apogee altitude
443.759 km
Perigee altitude
405.227 km
Semi-major axis
6,802.63 km
Eccentricity
0.00283
Inclination
100.3409°
RAAN
286.5316°
Arg. of periapsis
70.0985°
True anomaly
54.77709°
Mean anomaly
54.5123°
Eccentric anomaly
54.64464°
Mean motion
3.86837 °/min
Orbital period
93.06 mins
BSTAR
0.008971
Loading maneuver chart data...
Computing Atmospheric mass density...
Loading historical data...
Loading historical data...
Loading historical data...
Loading historical data...
Loading historical data...
Loading historical data...
Loading historical data...

Documentation

Showing up to 5 results
|